sat.trackr.live / text

‹ back to catalog

STARLINK-33705

NORAD 63651 · 2025-083T

PAYLOAD ACTIVE UNKNOWN

§ Identity

Operator
Country
US
Launch date
2025-04-25
Launch site
AFETR
Launch vehicle
Mass (kg)
RCS (m²)

Purposes: comms

External: N2YO · Heavens-Above · Gunter

§ Orbital elements

Epoch: 2026-09-20T12:18:49.069152Z

Period
94.27 min
Inclination
43.0012°
Eccentricity
0.0001354
Mean motion
15.27586839 rev/d
Perigee alt
482.1 km
Apogee alt
484.0 km
Semi-major
6,861.2 km
B*
3.3064e-4
RAAN
344.8514°
Arg perigee
280.0236°
Mean anomaly
80.0462°
Rev number
7,989

§ Raw data

STARLINK-337051 63651U 25083T   26263.51306793  .00008849  00000+0  33064-3 0  99992 63651  43.0012 344.8514 0001354 280.0236  80.0462 15.27586839 79893

JSON: /api/v1/satellites/63651 · /tle

For live sub-satellite position, see the globe view (requires WebGL).

§ Visibility from observer

Set your observer location to see the next 7 days of passes ≥ 10°. The values pass through the URL so the page stays shareable.

No JS? Fill the form by hand. The geolocation button needs JavaScript.